Bahias De Huatulco, Mexico

2:31 PM CDT on July 27, 2017 (GMT -0500)
Puerto Escondido | | Change Station

Elev 289 ft 15.87 °N, 97.08 °W | Updated 50 minutes ago

Overcast
Overcast
88 °F
Feels Like 100 °F
N
9
Wind Variable Wind from SW

Today
High -- | Low -- °F
--% Chance of Precip.
Yesterday
High -- | Low -- °F
Precip. -- in
Pressure 29.94 in
Visibility 8.0 miles
Clouds Scattered Clouds 8500 ft
Mostly Cloudy 22000 ft
Heat Index 100 °F
Dew Point 77 °F
Humidity 70%
Rainfall 0.00 in
Snow Depth Not available.
7:05 AM 7:57 PM
Waxing Crescent, 23% visible
METAR MMPS 271841Z 23008KT 8SM SCT085 BKN220 31/25 A2994 RMK 8/302 CU N HZY
Pressure 29.94 in
Visibility 8.0 miles
Clouds Scattered Clouds 8500 ft
Mostly Cloudy 22000 ft
Heat Index 100 °F
Dew Point 77 °F
Humidity 70%
Rainfall 0.00 in
Snow Depth Not available.
7:05 AM 7:57 PM
Waxing Crescent, 23% visible
METAR MMPS 271841Z 23008KT 8SM SCT085 BKN220 31/25 A2994 RMK 8/302 CU N HZY

Get Severe Weather Alerts

Thanks for signing up!

Be on the lookout for a verification email in your inbox.

You'll start receiving the daily forecast at 6 AM.

×

10-Day Weather Forecast

No radar image for this location.
×

Almanac

Astronomy

Jul. 27, 2017 Rise Set
Actual Time
Civil Twilight
Nautical Twilight
Astronomical Twilight
Moon
Length of Visible Light
Length of Day
Tomorrow will be .
, % of the Moon is Illuminated

Today's Extremes

Country Highs Country Lows

Community

WunderPhotos

Category 6

Welcome to Category 6. This is the collective home for Weather Underground's featured writeups by Dr. Jeff Masters (right), Bob Henson (left), Chris Burt, and other regular contributors.

Nearby

Air Quality

  Air Quality AQ Index Pollutant
Not available.

Snow Depth

Station Depth Elevation

Earthquake Activity

City Distance Mag. Time & Date
Minimum magnitude displayed is 2.5.

Coastal Water Temperatures

Place Temperature

Stations

Nearby Weather Stations

Station Location Temp. Windchill Dew Point Humidity Wind Precip. Elev Updated Type